Location: Moscow
(38.8570°N, 84.2291°W)
Time: 05:21:30
(UTC+00:00)

SMAP - Pass Details

Date: 15 November 2025
Orbit: 681 x 683 km, 98.1° (Epoch: 08 December)

Event Time Altitude Azimuth Distance (km) Brightness Sun altitude
Rises 22:53:01 0° 160° (SSE) 3,031 6.4 -6.3°
Reaches altitude 10° 22:55:14 10° 158° (SSE) 2,120 5.6 -6.7°
Maximum altitude 22:59:51 71° 76° (ENE) 724 3.0 -7.6°
Drops below altitude 10° 23:04:30 10° 352° (N) 2,133 5.5 -8.4°
Sets 23:06:45 0° 350° (N) 3,053 6.3 -8.8°
